Location: Champdray
(48.1346°N, 6.7529°E)
Time: 01:07:32
(UTC+00:00)

Daily predictions for brighter satellites

Satellite Brightness Start Highest point End
(mag) Time Altitude Azimuth Time Altitude Azimuth Time Altitude Azimuth
USA 234 4.2 00:37:41 10° ENE 00:43:28 41° N 00:43:28 41° N
Cosmos 1980 Rocket 4.1 01:05:32 24° ENE 01:05:32 24° ENE 01:08:21 10° NE
Cosmos 2263 Rocket 3.9 00:59:09 10° NNW 01:03:49 29° NE 01:03:49 29° NE
Lacrosse 5 4.0 01:22:28 24° NE 01:22:28 24° NE 01:24:25 10° NE
Resurs 1-4 Rocket 3.7 01:24:18 10° NNE 01:26:57 31° NNE 01:26:57 31° NNE
SL-16 R/B 4.0 01:35:43 26° NNW 01:35:43 26° NNW 01:38:17 10° NNW
CZ-2D R/B 3.6 01:30:52 10° NNE 01:33:36 31° N 01:33:36 31° N
USA 267 4.3 01:43:52 10° ENE 01:49:37 33° SE 01:49:37 33° SE
ARIANE 5 R/B 4.0 01:45:55 10° NNE 01:50:05 31° E 01:50:05 31° E
ATLAS 5 CENTAUR R/B 4.0 01:57:35 18° N 01:57:35 18° N 02:00:32 10° NNE
Cosmos 1934 Rocket 4.2 01:52:50 10° N 01:58:47 65° ENE 01:58:47 65° ENE
Gbstr 26 Del rocket 4.3 02:03:39 79° S 02:03:39 79° S 02:11:03 10° ESE
IRS-1D 4.3 01:58:12 10° NNE 02:02:07 50° NNE 02:02:07 50° NNE
ATLAS 2AS CENTAUR R/B 3.9 01:56:53 10° NW 02:04:09 44° NNE 02:10:53 10° ESE
Cosmos 2278 4.0 02:10:19 61° NNE 02:10:19 61° NNE 02:15:02 10° NNE
ADEOS II 2.6 02:14:14 10° NNE 02:18:20 54° N 02:18:20 54° N
Cosmos 2369 4.4 02:20:39 45° NNW 02:20:39 45° NNW 02:25:18 10° NNE
SJ 16-02 3.9 02:15:50 10° NNW 02:16:15 13° NNW 02:16:15 13° NNW
SL-4 R/B 3.9 02:21:54 29° ESE 02:21:54 29° ESE 02:24:53 10° ENE
IDEFIX/ARIANE 42P 3.4 02:16:26 10° NNE 02:21:31 46° E 02:22:24 42° SE
CZ-4C R/B 4.4 02:17:51 10° NW 02:23:41 31° NNE 02:30:23 10° E
USA 234 3.6 02:19:44 10° ESE 02:26:09 62° NNE 02:30:48 20° NW
Nadezhda 3 Rocket 4.2 02:27:56 53° NW 02:27:56 53° NW 02:33:13 10° N
Cosmos 2228 Rocket 3.7 02:33:13 52° NE 02:33:13 52° NE 02:36:45 10° NNE
Cosmos 1238 Rocket 3.8 02:26:46 10° NNW 02:33:16 77° W 02:33:16 77° W
Cosmos 1605 Rocket 4.1 02:27:05 10° N 02:33:31 77° E 02:37:19 26° SSE
CZ-4B R/B 4.1 02:30:39 10° N 02:34:35 46° NNW 02:34:35 46° NNW
USA 305 4.1 02:36:27 39° NNE 02:36:27 39° NNE 02:39:47 10° ENE
Cosmos 1535 Rocket 4.4 02:29:35 10° NNW 02:35:59 74° W 02:36:27 71° SW
Cosmos 2360 Rocket 4.2 02:33:12 11° SSE 02:37:22 24° ESE 02:41:45 10° NE
H-2A R/B 3.6 02:34:06 10° SE 02:38:09 37° ENE 02:42:18 10° N
USA 306 4.0 02:40:43 40° N 02:40:43 40° N 02:44:13 10° ENE
Cosmos 1697 Rocket 3.7 02:40:57 32° NW 02:40:57 32° NW 02:45:34 10° NNE
ATLAS CENTAUR R/B 4.2 02:31:05 10° WNW 02:44:14 49° N 02:49:17 10° E
Meteor 1-4 Rocket 3.9 02:46:55 37° NE 02:46:55 37° NE 02:49:28 10° NNE
Cosmos 1980 Rocket 2.5 02:47:20 49° NW 02:47:20 49° NW 02:52:44 10° NNE
Cosmos 2263 Rocket 3.5 02:42:47 10° NW 02:45:20 27° NW 02:45:20 27° NW
ASTEX 1 3.3 02:46:26 10° N 02:51:25 77° WNW 02:51:25 77° WNW
Cosmos 1844 Rocket 4.0 02:47:07 10° NNW 02:52:27 40° NE 02:57:45 10° ESE
Cosmos 2322 Rocket 2.6 02:54:21 34° S 02:56:37 58° ESE 03:02:13 10° NE
Cosmos 1898 Rocket 3.4 02:51:31 10° NNW 02:56:49 84° WSW 03:02:07 10° SSE
Cosmos 1666 3.0 02:55:19 10° N 02:59:06 62° ENE 02:59:06 62° ENE
Spot 4 Rocket 4.0 02:54:25 10° NNE 02:59:36 85° ESE 03:01:00 50° S
Meteor 1-11 Rocket 3.8 02:55:21 10° N 03:01:09 76° ENE 03:06:45 10° SSE
Lacrosse 5 2.9 03:01:39 31° NW 03:02:48 35° NNW 03:07:28 10° NE
Cosmos 858 Rocket 4.5 02:58:14 10° NNW 03:03:28 81° ENE 03:08:40 10° SSE
Cosmos 921 Rocket 3.5 03:05:07 45° NNW 03:05:07 45° NNW 03:08:29 10° NNE
IRS-1C 4.3 02:59:47 10° N 03:04:56 51° WNW 03:05:14 50° W
Cosmos 1812 3.1 03:08:14 52° NNW 03:08:14 52° NNW 03:11:19 10° N
SL-16 R/B 2.2 03:06:39 43° SSW 03:08:38 84° ESE 03:14:20 10° NNE
Resurs 1-4 Rocket 4.0 03:05:37 10° NNW 03:08:01 15° NW 03:08:01 15° NW
USA 307 3.9 03:08:53 35° NNW 03:09:38 38° N 03:13:39 10° ENE
Meteor 1-27 Rocket 4.2 03:05:04 13° S 03:10:17 64° E 03:16:07 10° NNE
IRIDIUM 104 4.2 03:06:28 10° N 03:11:43 84° W 03:15:23 20° S
ERBS 3.4 03:12:22 38° N 03:12:22 38° N 03:14:59 10° NE
USA 308 3.9 03:12:08 33° NW 03:13:02 38° N 03:17:02 10° ENE
Cosmos 2100 Rocket 4.4 03:07:11 10° N 03:13:33 65° ENE 03:19:51 10° SSE
Cosmos 1727 Rocket 4.0 03:09:26 18° S 03:14:24 85° E 03:20:45 10° N
Cosmos 1339 Rocket 4.5 03:12:47 41° SW 03:14:50 60° WNW 03:20:57 10° N
CZ-2D R/B 4.0 03:12:38 10° NNW 03:14:55 14° NW 03:14:55 14° NW
Cosmos 1937 Rocket 3.3 03:11:10 10° NNW 03:16:20 79° WSW 03:21:28 10° SSE
Cosmos 1459 Rocket 4.4 03:11:41 10° N 03:17:44 63° ENE 03:23:42 10° SSE
CZ-4C R/B 2.9 03:20:02 77° NW 03:20:02 77° NW 03:23:22 10° NNW
FALCON 9 DEB 3.1 03:20:10 78° E 03:20:10 78° E 03:23:26 10° ENE
IRIDIUM 114 4.2 03:15:38 10° N 03:20:51 71° W 03:24:29 20° S
Cosmos 841 Rocket 4.0 03:18:31 17° S 03:22:23 58° ESE 03:27:34 10° NNE
Cosmos 1536 2.8 03:20:03 10° N 03:24:09 86° E 03:28:13 10° S
CZ-2D R/B 3.8 03:23:01 10° N 03:27:07 46° WNW 03:27:24 46° W
Cosmos 1763 Rocket 3.4 03:25:15 37° SW 03:27:21 72° WNW 03:32:40 10° NNE
USA 32 3.9 03:24:01 10° N 03:29:18 82° W 03:34:33 10° S
ARIANE 5 R/B 3.0 03:24:53 10° N 03:29:35 39° WNW 03:30:24 36° W
IRIDIUM 103 4.3 03:24:51 10° N 03:29:59 59° W 03:33:37 19° SSW
NOSS 3-4 (A) 3.8 03:24:49 10° NW 03:31:48 73° SW 03:39:30 10° SSE
NOSS 3-4 (C) 3.8 03:24:56 10° NW 03:31:54 73° SW 03:39:37 10° SSE
USA 267 3.2 03:26:36 10° NE 03:33:10 86° NNW 03:36:57 28° WSW
Cosmos 1707 Rocket 3.4 03:32:27 31° SSW 03:34:26 74° W 03:38:49 10° N
ADEOS Rocket 3.2 03:31:35 10° SSE 03:38:09 79° ENE 03:44:04 10° NNW
CZ-4B R/B 2.6 03:37:52 10° SE 03:40:56 42° ENE 03:44:05 10° N
NOSS 3-3 (A) 4.5 03:38:58 28° W 03:41:54 47° NW 03:48:32 10° NE
NOSS 3-3 (C) 4.5 03:39:06 28° W 03:42:00 47° NW 03:48:36 10° NE
ERS-2 2.0 03:38:30 10° SSE 03:42:09 90° E 03:45:51 10° NNW
Cosmos 540 Rocket 3.5 03:38:54 17° SSW 03:42:59 85° ESE 03:48:12 10° NNE
ATLAS 5 CENTAUR R/B 4.3 03:40:49 10° NNW 03:43:42 15° N 03:46:49 10° NE
MSX 3.9 03:38:56 10° N 03:44:35 57° WNW 03:48:33 20° SW
Cosmos 1733 Rocket 2.9 03:43:01 10° NNW 03:47:21 74° W 03:51:40 10° S
Cosmos 44 Rocket 3.2 03:44:48 25° SW 03:47:38 87° ESE 03:52:33 10° NE
Cosmos 1544 4.3 03:45:14 10° N 03:48:41 42° ENE 03:52:06 10° SSE
Cosmos 1743 3.0 03:46:14 10° N 03:50:02 68° E 03:53:50 10° SSE
PAYLOAD A 3.7 03:47:31 10° NNE 03:52:13 77° WNW 03:56:56 10° SSW
ATLAS 2AS CENTAUR R/B 2.8 03:48:08 10° NW 03:55:31 63° WSW 04:02:18 10° SSE
Cosmos 2173 Rocket 4.0 03:49:14 10° NNW 03:55:33 71° W 04:01:52 10° S
Landsat 5 4.0 03:51:35 10° SSW 03:55:48 39° W 03:59:59 10° NNW
ADEOS 4.2 03:50:45 10° NNE 03:55:55 57° ESE 04:01:02 10° S
Cosmos 2333 Rocket 3.6 03:51:25 10° S 03:56:44 40° ESE 04:02:04 10° NE
BREEZE M DEB (TANK) 4.5 03:45:10 10° WNW 03:57:24 35° WSW 04:01:42 10° S
CZ-2C R/B 3.5 03:54:25 10° N 03:57:52 32° WNW 03:58:54 28° W
ADEOS II 3.9 03:55:42 10° NNW 03:58:22 14° NW 03:59:15 14° WNW
SL-4 R/B 2.3 03:57:30 26° WSW 04:00:05 78° NNW 04:04:55 10° ENE
IDEFIX/ARIANE 42P 3.5 03:56:24 10° N 04:00:54 29° WNW 04:03:12 21° WSW
Cosmos 2322 4.4 03:56:00 10° S 04:01:30 54° ESE 04:07:00 10° NE
PSLV R/B 3.4 03:57:22 10° N 04:01:32 64° WNW 04:05:40 10° SSW
Cosmos 1570 Rocket 4.0 03:58:30 13° SSW 04:03:17 70° WNW 04:08:40 10° NNE
BREEZE-M DEB (TANK) 3.1 03:59:36 19° WSW 04:04:07 52° S 04:06:59 10° E
USA 276 2.3 04:03:18 30° W 04:04:33 52° SSW 04:07:41 10° SE
Meteor 2-20 4.4 04:01:00 10° S 04:07:09 86° WNW 04:13:17 10° N
USA 234 3.4 04:02:52 10° SE 04:09:15 56° SW 04:15:41 10° WNW
Cosmos 1862 Rocket 3.5 04:04:58 10° SSW 04:09:18 65° WNW 04:13:39 10° N
BREEZE-M DEB (TANK) 3.4 04:08:00 22° W 04:10:07 80° N 04:19:15 10° E
CZ-4C R/B 3.2 04:06:13 10° NW 04:13:19 76° NE 04:21:34 10° SE
H-2A R/B 3.0 04:10:26 10° SSW 04:14:12 27° W 04:18:03 10° NW
SAR-Lupe-4 3.5 04:11:33 10° SSE 04:15:08 84° WSW 04:18:46 10° NNW
ALOS 2.7 04:10:45 10° NNE 04:15:25 66° ESE 04:20:03 10° S
USA 305 4.0 04:12:36 11° WNW 04:16:22 39° N 04:20:22 10° E
Cosmos 1689 Rocket 3.2 04:14:14 10° SSE 04:17:06 48° ENE 04:20:00 10° N
PKM 4.5 04:14:43 15° WNW 04:17:20 36° SW 04:20:58 10° SSE
FENGYUN 3A 4.0 04:12:21 10° NNE 04:17:45 70° ESE 04:23:09 10° S
Cosmos 2333 4.5 04:13:54 10° SSW 04:19:40 75° ESE 04:25:26 10° NNE
USA 306 4.0 04:16:52 10° WNW 04:20:49 40° N 04:24:51 10° E
Cosmos 2360 Rocket 2.3 04:15:17 10° SW 04:20:54 63° WNW 04:26:32 10° NNE
COSMOS 2455 3.9 04:15:26 10° NNW 04:21:17 48° NE 04:27:05 10° ESE
Meteor 1-4 Rocket 4.4 04:21:08 13° WNW 04:21:23 14° WNW 04:23:14 10° NNW
CZ-2C R/B 2.8 04:18:08 10° N 04:23:06 49° WNW 04:28:05 10° SW
Cosmos 1975 3.1 04:19:31 10° N 04:23:33 73° E 04:27:31 10° SSE
Cosmos 372 Rocket 4.3 04:22:31 10° NW 04:27:18 40° WSW 04:32:02 10° S
Cosmos 2016 Rocket 4.0 04:21:18 10° NNW 04:27:19 60° W 04:33:17 10° S
Meteor 1-19 Rocket 4.5 04:22:04 10° S 04:27:33 75° E 04:33:15 10° NNE
Meteor 1-18 Rocket 4.3 04:22:45 10° S 04:28:17 82° E 04:33:55 10° NNE
Cosmos 1980 Rocket 4.2 04:30:02 10° WNW 04:32:42 13° NNW 04:35:23 10° N
Cosmos 1484 Rocket 2.8 04:28:41 10° N 04:32:42 78° WNW 04:36:42 10° SSW
Cosmos 2061 Rocket 4.2 04:27:52 10° NNW 04:34:08 56° W 04:40:22 10° SSW
SAR-Lupe-1 4.1 04:30:44 10° S 04:34:14 53° WSW 04:37:46 10° NNW
Cosmos 1844 Rocket 3.1 04:31:09 10° NW 04:36:20 38° WSW 04:41:30 10° S
Cosmos 2233 Rocket 4.0 04:30:54 10° N 04:37:05 90° W 04:43:13 10° S
Cosmos 1515 3.6 04:33:57 10° SSW 04:37:43 72° W 04:41:32 10° N
Cosmos 2322 Rocket 3.2 04:36:12 10° WSW 04:41:02 30° NW 04:46:00 10° NNE
Cosmos 2278 Rocket 3.0 04:35:51 10° NNW 04:41:27 56° ENE 04:47:01 10° SE
Cosmos 1844 4.1 04:40:00 10° NW 04:45:08 39° WSW 04:50:15 10° S
Meteor 1-31 Rocket 2.7 04:41:47 10° N 04:45:36 69° WNW 04:49:26 10° SSW
Okean 1 3.6 04:41:54 10° SSW 04:45:47 46° WNW 04:49:43 10° N
Lacrosse 5 3.3 04:42:19 10° NW 04:46:50 31° N 04:51:22 10° ENE
Aureole 2 Rocket 4.0 04:44:43 10° N 04:47:28 32° ENE 04:50:05 10° SE
COSMO-SKYMED 1 2.5 04:43:34 10° SSE 04:47:54 82° WSW 04:52:17 10° NNW
ERBS 4.3 04:46:09 10° NW 04:48:39 19° N 04:51:09 10° NE
Cosmos 1725 Rocket 4.2 04:44:02 10° NNW 04:49:57 49° W 04:55:50 10° SSW
USA 307 3.8 04:46:12 10° WNW 04:50:19 46° NNE 04:54:26 10° E
Meteor 2-9 Rocket 4.1 04:45:24 10° NNW 04:50:49 62° W 04:56:05 10° S
deb Chang Zheng 4 3.9 04:48:27 10° N 04:52:33 43° WNW 04:56:35 10° SW
Cosmos 1437 Rocket 3.5 04:49:13 10° SW 04:52:40 32° WNW 04:56:11 10° N
SJ-12 4.0 04:48:47 10° NNE 04:52:56 88° ESE 04:57:05 10° SSW
SL-16 R/B 3.6 04:49:06 10° W 04:53:28 22° NW 04:57:52 10° N
USA 308 3.7 04:49:34 10° WNW 04:53:43 47° NNE 04:57:51 10° E
